Mount Holly, NJ

7:57 AM EST on December 09, 2019 (GMT -0500)
South Jersey Regional

Weather History for KVAY - September, 2019

Change the Weather History Date:

Saturday, September 28, 2019

  Actual Average (WUND) Record (WUND)
Temperature  
Mean Temperature 70 °F -  
Max Temperature 84 °F - - (-1)
Min Temperature 57 °F - - (-1)
Cooling Degree Days 6    
Growing Degree Days 20 (Base 50)    
Moisture  
Dew Point 65 °F    
Average Humidity 80    
Maximum Humidity 96    
Minimum Humidity 58    
Precipitation  
Precipitation 0.00 in - - ()
Sea Level Pressure  
Sea Level Pressure 30.10 in    
Wind  
Wind Speed 2 mph (SW)    
Max Wind Speed 9 mph    
Max Gust Speed 18 mph    
Visibility 9 miles    
Events Rain , Thunderstorm    
Averages and records for this station are not official NWS values.
T = Trace of Precipitation, MM = Missing Value Source: NWS Daily Summary

Daily Weather History Graph

Daily Weather History Graph

Search for Another Location

Airport or City:

Astronomy

Sep. 28, 2019 Rise Set
Actual Time 6:52 AM EDT 6:47 PM EDT
Civil Twilight 6:25 AM EDT 7:13 PM EDT
Nautical Twilight 5:54 AM EDT 7:45 PM EDT
Astronomical Twilight 5:22 AM EDT 8:17 PM EDT
Moon 6:25 AM EDT (9/28) 7:11 PM EDT (9/28)
Length of Visible Light 12h 48m
Length of Day
11h 54m
Waning Crescent, 0% of the Moon is Illuminated
Sep 28
Waning Crescent
Sep 28
New
Oct 5
First Quarter
Oct 13
Full
Oct 21
Last Quarter

Hourly Weather History & Observations

Time (EDT) Temp. Heat Index Dew Point Humidity Pressure Visibility Wind Dir Wind Speed Gust Speed Precip Events Conditions
12:54 AM 60.1 °F - 55.9 °F 86% 30.13 in 10.0 mi Calm Calm - N/A   Clear
1:54 AM 59.0 °F - 55.9 °F 90% 30.13 in 10.0 mi Calm Calm - N/A   Clear
2:54 AM 57.9 °F - 55.9 °F 93% 30.12 in 10.0 mi Calm Calm - N/A   Clear
3:54 AM 60.1 °F - 57.9 °F 93% 30.10 in 10.0 mi South 3.5 mph - N/A   Clear
4:54 AM 60.1 °F - 57.0 °F 90% 30.12 in 10.0 mi Calm Calm - N/A   Clear
5:54 AM 57.9 °F - 55.9 °F 93% 30.13 in 9.0 mi Calm Calm - N/A   Scattered Clouds
6:54 AM 57.0 °F - 55.0 °F 93% 30.13 in 5.0 mi Calm Calm - N/A   Clear
7:54 AM 59.0 °F - 57.9 °F 96% 30.14 in 9.0 mi Calm Calm - N/A   Clear
8:54 AM 68.0 °F - 63.0 °F 84% 30.13 in 10.0 mi Variable 3.5 mph - N/A   Clear
9:54 AM 73.0 °F - 64.0 °F 73% 30.12 in 10.0 mi Variable 3.5 mph - N/A   Clear
10:54 AM 78.1 °F - 64.9 °F 64% 30.12 in 10.0 mi Variable 6.9 mph - N/A   Overcast
11:47 AM 79.0 °F - 66.0 °F 64% 30.11 in 10.0 mi SW 9.2 mph 18.4 mph N/A   Mostly Cloudy
11:54 AM 80.1 °F 82.1 °F 66.0 °F 62% 30.11 in 10.0 mi SW 8.1 mph 16.1 mph N/A   Mostly Cloudy
12:34 PM 82.9 °F 85.4 °F 66.9 °F 58% 30.09 in 10.0 mi Variable 5.8 mph - N/A   Mostly Cloudy
12:54 PM 82.9 °F 85.4 °F 66.9 °F 58% 30.10 in 10.0 mi SSW 6.9 mph - N/A   Mostly Cloudy
1:54 PM 82.0 °F 84.9 °F 68.0 °F 62% 30.08 in 10.0 mi Variable 4.6 mph - N/A   Mostly Cloudy
2:54 PM 82.9 °F 85.8 °F 68.0 °F 60% 30.05 in 10.0 mi Variable 6.9 mph - N/A   Mostly Cloudy
3:54 PM 82.9 °F 85.8 °F 68.0 °F 60% 30.04 in 10.0 mi SW 5.8 mph - N/A   Mostly Cloudy
4:54 PM 84.0 °F 88.4 °F 70.0 °F 63% 30.03 in 10.0 mi Variable 3.5 mph - N/A   Partly Cloudy
5:54 PM 82.9 °F 87.0 °F 70.0 °F 65% 30.03 in 10.0 mi South 4.6 mph - N/A   Clear
6:54 PM 79.0 °F - 70.0 °F 74% 30.06 in 10.0 mi Variable 3.5 mph - N/A   Mostly Cloudy
7:54 PM 77.0 °F - 70.0 °F 79% 30.06 in 10.0 mi Calm Calm - N/A   Clear
8:54 PM 73.0 °F - 69.1 °F 87% 30.06 in 10.0 mi Calm Calm - N/A   Clear
9:54 PM 73.0 °F - 70.0 °F 90% 30.09 in 10.0 mi Calm Calm - N/A   Mostly Cloudy
10:44 PM 73.9 °F - 70.0 °F 87% 30.10 in 10.0 mi Calm Calm - N/A Thunderstorm Mostly Cloudy
10:54 PM 73.9 °F - 70.0 °F 87% 30.11 in 10.0 mi West 4.6 mph - N/A Thunderstorm Thunderstorm
11:07 PM 73.9 °F - 71.1 °F 91% 30.11 in 1.0 mi WSW 8.1 mph - 0.00 in Rain , Thunderstorm Heavy Thunderstorms and Rain
11:17 PM 73.0 °F - 70.0 °F 90% 30.09 in 2.0 mi Calm Calm - N/A Rain , Thunderstorm Thunderstorms and Rain
11:25 PM 73.0 °F - 69.1 °F 87% 30.09 in 10.0 mi SW 3.5 mph - N/A Rain , Thunderstorm Light Thunderstorms and Rain
11:43 PM 70.0 °F - 68.0 °F 93% 30.10 in 1.8 mi Variable 3.5 mph - N/A Rain , Thunderstorm Heavy Thunderstorms and Rain
11:51 PM 69.8 °F - 68.0 °F 94% 30.09 in 3.0 mi Calm Calm - N/A Rain , Thunderstorm Light Thunderstorms and Rain
11:54 PM 70.0 °F - 68.0 °F 93% 30.09 in 4.0 mi SE 3.5 mph - N/A Rain , Thunderstorm Thunderstorms and Rain